TimePST,TemperatureF,Dew PointF,Humidity,Sea Level PressureIn,VisibilityMPH,Wind Direction,Wind SpeedMPH,Gust SpeedMPH,PrecipitationIn,Events,Conditions,WindDirDegrees,DateUTC
12:55 AM,46.9,16.0,29,30.25,-9999.0,NE,9.2,-,N/A,,Clear,50,2011-12-07 08:55:00
1:55 AM,41.0,23.0,49,30.27,-9999.0,NNW,4.6,-,N/A,,Clear,340,2011-12-07 09:55:00
2:55 AM,39.9,23.0,51,30.25,-9999.0,Calm,Calm,-,N/A,,Clear,0,2011-12-07 10:55:00
3:55 AM,46.0,17.1,31,30.25,-9999.0,Calm,Calm,-,N/A,,Clear,0,2011-12-07 11:55:00
5:55 AM,36.0,24.1,62,30.24,10.0,NW,4.6,-,N/A,,Clear,310,2011-12-07 13:55:00
6:55 AM,37.9,24.1,57,30.24,-9999.0,NW,3.5,-,N/A,,Clear,320,2011-12-07 14:55:00
7:55 AM,42.1,26.1,53,30.23,-9999.0,WNW,3.5,-,N/A,,Clear,300,2011-12-07 15:55:00
8:55 AM,52.0,28.0,40,30.23,-9999.0,West,4.6,-,N/A,,Clear,280,2011-12-07 16:55:00
9:55 AM,66.0,14.0,13,30.23,10.0,East,8.1,19.6,N/A,,Clear,80,2011-12-07 17:55:00
10:55 AM,69.1,14.0,12,30.21,10.0,East,13.8,-,N/A,,Clear,80,2011-12-07 18:55:00
11:55 AM,71.1,15.1,12,30.18,10.0,East,15.0,20.7,N/A,,Clear,80,2011-12-07 19:55:00
12:55 PM,69.1,26.1,20,30.15,10.0,West,11.5,-,N/A,,Clear,270,2011-12-07 20:55:00
1:55 PM,68.0,23.0,18,30.13,10.0,West,13.8,-,N/A,,Clear,270,2011-12-07 21:55:00
2:55 PM,66.0,26.1,22,30.12,9.0,West,12.7,-,N/A,,Clear,270,2011-12-07 22:55:00
3:55 PM,64.0,27.0,25,30.11,10.0,WSW,6.9,-,N/A,,Clear,240,2011-12-07 23:55:00
5:55 PM,55.0,39.9,57,30.11,10.0,SSE,3.5,-,N/A,,Clear,160,2011-12-08 01:55:00
6:55 PM,48.0,36.0,63,30.10,10.0,Calm,Calm,-,N/A,,Clear,0,2011-12-08 02:55:00
7:55 PM,48.0,36.0,63,30.10,10.0,ENE,3.5,-,N/A,,Clear,60,2011-12-08 03:55:00
8:55 PM,46.9,36.0,66,30.11,10.0,North,3.5,-,N/A,,Clear,360,2011-12-08 04:55:00
9:55 PM,43.0,33.1,68,30.11,8.0,Calm,Calm,-,N/A,,Clear,0,2011-12-08 05:55:00
10:55 PM,41.0,34.0,76,30.12,10.0,Calm,Calm,-,N/A,,Clear,0,2011-12-08 06:55:00
11:55 PM,41.0,33.1,73,30.11,10.0,Calm,Calm,-,N/A,,Clear,0,2011-12-08 07:55:00